Total_Precipitation_Accumulation
2.42 2.35 2.87 3.84 4.39 3.87 3.44 2.73 2.34 2.22 1.87 1.46 1.14 1.12 1.40 1.81 2.25 2.62 2.89 2.77 1.93 1.51 1.58 2.33 2.94 2.66 2.18 1.87 1.74 1.75 1.68 1.75 1.67 1.65 1.45 1.35 1.23 1.12 0.96 0.87 0.93 0.93 0.85 0.80 0.75 0.83 0.85 0.86 1.04
1.78 2.63 3.47 4.40 3.99 3.30 3.16 2.73 2.51 2.08 1.51 1.19 0.87 0.81 0.93 0.98 1.02 1.59 2.75 2.71 1.73 1.39 1.46 1.76 2.43 2.34 1.95 1.72 1.69 1.77 1.75 1.84 1.76 1.61 1.40 1.30 1.30 1.24 1.11 1.03 1.12 0.95 0.84 0.79 0.79 0.86 0.95 0.92 1.04
1.91 3.03 4.03 4.27 3.14 2.84 2.96 2.76 2.30 1.71 1.23 1.12 0.90 0.80 0.98 1.20 1.28 1.83 2.52 1.97 1.48 1.36 1.43 1.91 2.43 2.21 1.92 1.70 1.77 1.85 1.86 1.87 1.69 1.48 1.28 1.28 1.31 1.30 1.27 1.25 1.20 0.97 0.89 0.81 0.81 0.88 0.92 0.92 0.97
2.23 3.37 3.68 3.41 2.78 2.38 2.42 2.43 1.92 1.55 1.19 0.85 0.84 0.86 0.89 1.25 1.31 1.60 1.68 1.41 1.26 1.37 1.45 1.82 2.29 2.15 1.92 1.73 1.82 1.88 1.95 1.95 1.84 1.57 1.31 1.28 1.29 1.28 1.25 1.30 1.16 1.03 0.93 0.83 0.82 0.89 0.93 0.92 0.94
2.66 3.51 3.45 2.99 2.66 2.34 2.02 1.72 1.52 1.42 1.19 0.91 0.79 1.00 1.32 1.64 1.46 1.39 1.37 1.29 1.15 1.26 1.28 1.50 2.04 2.07 1.89 1.79 1.96 2.00 2.04 2.11 2.05 1.74 1.51 1.39 1.31 1.29 1.32 1.35 1.21 1.14 1.05 0.98 0.96 0.97 0.96 0.93 0.97
2.99 3.10 3.29 2.91 2.61 2.38 2.27 1.67 1.47 1.38 1.07 0.90 0.85 1.07 1.70 1.98 1.67 1.49 1.34 1.41 1.37 1.35 1.27 1.24 1.72 1.91 1.84 1.81 1.89 1.94 1.96 1.99 2.01 1.79 1.61 1.46 1.32 1.25 1.35 1.41 1.27 1.19 1.06 1.00 1.00 1.02 1.05 1.03 1.02
2.93 3.01 3.04 2.52 2.53 2.74 2.39 1.69 1.52 1.33 1.21 0.99 0.77 1.16 1.78 2.08 1.75 1.49 1.42 1.47 1.56 1.52 1.46 1.30 1.35 1.56 1.79 1.86 1.85 1.83 1.80 1.82 1.89 1.68 1.58 1.43 1.31 1.19 1.24 1.30 1.22 1.20 1.17 1.15 1.10 1.12 1.14 1.05 1.06
2.16 2.46 2.52 2.45 2.57 2.80 2.08 1.56 1.23 1.13 1.08 0.84 0.71 1.12 1.60 1.60 1.49 1.47 1.60 1.76 1.89 1.71 1.58 1.36 1.29 1.34 1.40 1.56 1.71 1.83 1.85 1.82 1.85 1.64 1.49 1.38 1.27 1.11 1.13 1.09 1.08 1.19 1.28 1.35 1.33 1.30 1.22 1.20 1.12
1.96 2.59 2.87 2.85 2.57 2.19 1.44 1.31 1.11 0.89 0.96 0.86 0.69 0.73 0.91 0.99 1.16 1.37 1.46 1.61 1.71 1.46 1.38 1.43 1.42 1.40 1.41 1.36 1.43 1.69 1.80 1.80 1.68 1.59 1.48 1.31 1.01 0.85 0.91 0.93 1.17 1.30 1.44 1.51 1.53 1.48 1.41 1.29 1.11
2.02 2.74 2.74 2.18 1.90 1.59 1.14 1.11 1.00 1.00 1.06 0.99 0.77 0.74 0.84 0.92 1.14 1.32 1.26 1.29 1.23 1.15 1.13 1.22 1.23 1.36 1.40 1.26 1.47 1.74 1.59 1.49 1.26 1.27 1.13 1.09 0.98 0.91 0.76 0.88 1.23 1.38 1.44 1.44 1.52 1.59 1.39 1.10 0.83
1.62 2.14 1.94 1.72 1.50 1.23 1.06 1.10 0.97 1.00 1.15 1.01 0.81 0.80 1.01 1.09 1.11 1.10 1.06 1.08 1.00 0.97 0.95 0.94 0.98 1.06 1.18 1.33 1.57 1.85 1.91 1.71 1.49 1.24 1.14 1.12 1.00 0.88 0.80 0.81 0.94 1.06 1.12 1.02 1.07 1.08 0.93 0.83 0.77
1.41 1.40 1.41 1.61 1.37 1.26 1.05 1.02 1.04 1.01 1.04 0.90 0.75 0.75 0.92 1.10 1.15 1.03 0.88 0.82 0.76 0.81 0.92 0.77 0.66 0.82 0.98 1.11 1.23 1.50 1.57 1.52 1.39 1.17 1.07 1.14 1.09 0.97 0.95 0.90 0.93 0.96 0.98 1.03 1.01 1.05 0.99 0.82 0.74
1.69 1.47 1.26 1.25 1.26 1.33 1.12 1.04 1.03 1.01 0.89 0.80 0.76 0.86 0.93 0.95 0.95 0.91 0.77 0.67 0.70 0.81 0.89 0.80 0.67 0.66 0.73 0.80 0.90 1.05 1.22 1.31 1.31 1.24 1.05 1.05 1.10 1.06 1.07 1.00 1.01 0.91 0.88 0.95 1.00 1.03 1.05 0.95 0.81
1.51 1.35 1.33 1.32 1.25 1.26 1.28 1.04 1.02 1.20 0.92 0.81 0.89 0.96 0.92 0.86 0.85 0.91 0.82 0.73 0.66 0.70 0.83 0.82 0.72 0.70 0.72 0.69 0.69 0.71 0.86 1.02 1.15 1.15 1.07 1.11 1.13 1.09 1.14 1.10 1.05 0.99 0.90 0.93 1.11 1.08 1.10 1.07 0.98
1.40 1.55 1.50 1.41 1.31 1.30 1.26 1.35 1.23 1.14 0.96 0.91 0.97 0.92 0.88 0.83 0.82 0.91 0.83 0.73 0.66 0.66 0.73 0.79 0.77 0.80 0.83 0.78 0.76 0.63 0.68 0.77 0.91 1.04 1.06 1.14 1.09 1.01 1.07 1.08 1.02 0.99 0.99 1.01 1.07 1.09 1.13 1.03 0.96
1.70 1.85 1.95 1.65 1.43 1.24 1.26 1.63 1.49 1.23 1.03 1.05 1.02 0.91 0.87 0.82 0.77 0.81 0.78 0.77 0.73 0.73 0.79 0.84 0.84 0.87 0.90 0.92 0.90 0.82 0.86 0.92 0.97 1.10 1.06 1.05 1.12 1.08 1.06 1.10 1.09 1.11 1.14 1.12 1.14 1.20 1.18 1.11 1.12
1.87 1.88 1.74 1.60 1.31 1.10 1.13 1.38 1.40 1.27 1.05 0.93 0.91 0.85 0.75 0.65 0.60 0.58 0.58 0.60 0.65 0.67 0.72 0.78 0.84 0.86 0.89 0.93 1.01 1.12 1.15 1.15 1.14 1.19 1.13 1.04 1.07 1.13 1.23 1.27 1.28 1.25 1.27 1.27 1.24 1.27 1.17 1.18 1.20
1.80 1.51 1.31 1.25 1.17 1.03 0.94 1.03 1.10 1.11 0.98 0.79 0.70 0.67 0.65 0.55 0.49 0.44 0.41 0.43 0.50 0.55 0.60 0.67 0.75 0.91 1.03 1.08 1.08 1.23 1.27 1.35 1.44 1.48 1.34 1.20 1.24 1.37 1.56 1.65 1.54 1.51 1.52 1.51 1.47 1.54 1.43 1.30 1.33
1.32 1.28 1.16 0.98 0.94 0.97 0.87 0.86 0.90 0.89 0.86 0.74 0.60 0.49 0.47 0.45 0.42 0.39 0.34 0.35 0.39 0.43 0.48 0.56 0.64 0.81 0.91 0.97 1.09 1.27 1.44 1.60 1.76 1.85 1.73 1.57 1.54 1.73 1.87 1.80 1.88 1.89 1.77 1.78 1.85 1.90 1.86 1.66 1.51
1.15 1.17 1.03 0.88 0.75 0.75 0.76 0.78 0.80 0.75 0.74 0.63 0.51 0.42 0.34 0.28 0.27 0.24 0.21 0.23 0.26 0.28 0.33 0.41 0.50 0.57 0.69 0.87 1.12 1.33 1.60 1.68 1.77 1.88 1.92 1.83 1.77 1.96 2.00 2.07 2.17 2.19 2.19 2.14 2.04 2.17 2.32 2.04 1.78
0.94 1.00 0.91 0.83 0.71 0.66 0.64 0.79 0.77 0.71 0.66 0.58 0.45 0.37 0.29 0.23 0.20 0.15 0.15 0.18 0.23 0.23 0.24 0.32 0.43 0.56 0.79 1.02 1.34 1.63 1.89 1.97 2.02 1.96 1.99 2.04 2.09 2.18 2.22 2.27 2.33 2.34 2.18 2.18 2.29 2.44 2.78 2.58 2.20
0.91 0.68 0.62 0.61 0.72 0.72 0.62 0.91 0.68 0.57 0.57 0.52 0.44 0.40 0.32 0.24 0.18 0.15 0.16 0.16 0.19 0.23 0.28 0.40 0.58 0.77 1.03 1.35 1.72 1.98 2.22 2.34 2.18 2.12 2.13 2.12 2.09 2.14 2.26 2.25 2.24 2.21 2.15 2.21 2.28 2.33 2.76 2.95 2.65
0.62 0.52 0.61 0.62 0.63 0.57 0.43 0.61 0.58 0.47 0.53 0.45 0.38 0.38 0.37 0.30 0.23 0.20 0.22 0.23 0.28 0.36 0.45 0.62 0.89 1.19 1.45 1.68 1.86 2.08 2.22 2.24 2.19 2.11 2.10 2.04 2.01 2.00 2.02 2.02 2.11 2.14 2.18 2.24 2.40 2.52 2.79 2.81 2.80
0.45 0.54 0.67 0.68 0.70 0.73 0.39 0.48 0.58 0.46 0.44 0.40 0.36 0.34 0.30 0.28 0.28 0.29 0.31 0.38 0.46 0.54 0.69 0.87 1.07 1.37 1.56 1.68 1.78 1.94 2.09 2.13 2.11 2.09 2.07 2.08 2.05 1.95 1.88 1.84 1.92 2.05 2.19 2.25 2.34 2.50 2.74 2.85 2.92
0.44 0.73 1.04 1.09 1.04 0.77 0.37 0.52 0.62 0.46 0.36 0.32 0.33 0.32 0.29 0.34 0.39 0.39 0.49 0.64 0.71 0.76 0.86 1.02 1.12 1.32 1.43 1.48 1.57 1.70 1.76 1.80 1.82 1.80 1.76 1.70 1.66 1.66 1.70 1.78 1.87 2.01 2.10 2.17 2.30 2.44 2.50 2.61 2.84
0.39 0.61 1.02 1.12 0.97 0.70 0.50 0.74 0.67 0.44 0.36 0.33 0.33 0.31 0.34 0.45 0.55 0.66 0.80 0.89 0.96 0.98 0.96 1.00 1.15 1.19 1.19 1.24 1.24 1.34 1.43 1.48 1.52 1.49 1.47 1.50 1.54 1.56 1.52 1.57 1.65 1.87 2.06 2.13 2.23 2.24 2.22 2.28 2.47
0.38 0.43 0.49 0.70 0.66 0.70 0.66 0.83 0.76 0.45 0.39 0.34 0.34 0.36 0.43 0.59 0.80 1.02 1.20 1.30 1.38 1.31 1.15 1.02 1.01 1.00 0.99 1.09 1.16 1.20 1.26 1.30 1.30 1.31 1.24 1.31 1.36 1.37 1.33 1.36 1.40 1.52 1.74 1.97 2.13 2.08 2.00 1.96 2.12
0.31 0.42 0.55 0.82 1.00 0.97 0.85 0.96 0.93 0.65 0.53 0.45 0.46 0.56 0.71 0.92 1.22 1.49 1.72 1.84 1.81 1.62 1.37 1.12 0.96 0.91 0.89 0.96 1.06 1.14 1.14 1.14 1.12 1.13 1.05 1.09 1.17 1.16 1.14 1.15 1.22 1.37 1.50 1.69 1.91 2.00 1.94 1.92 1.97
0.35 0.50 0.63 0.82 0.88 1.12 1.26 1.24 0.98 0.88 0.77 0.74 0.81 0.97 1.18 1.45 1.65 1.81 1.97 2.02 1.76 1.59 1.35 1.10 0.95 0.96 0.98 1.02 1.06 1.08 1.03 1.01 1.00 0.96 0.89 0.93 0.98 0.95 0.96 1.14 1.20 1.27 1.35 1.55 1.82 1.99 2.01 1.93 1.93
0.45 0.66 0.87 1.22 1.12 1.05 1.28 1.32 0.94 0.87 0.91 0.95 1.07 1.12 1.24 1.40 1.43 1.52 1.60 1.56 1.52 1.47 1.29 1.12 1.03 1.03 1.08 1.11 1.15 1.09 0.99 0.94 0.95 0.92 0.82 0.79 0.76 0.73 0.82 0.95 1.00 1.05 1.10 1.28 1.57 1.76 1.81 1.80 1.71